Location: Tel Aviv
(32.0670°N, 34.7670°E)
Time: 21:21:52
(UTC+03:00)

Transit 2A - Pass Details

Date: 31 May 2024
Orbit: 593 x 959 km, 66.7° (Epoch: 14 June)

Event Time Altitude Azimuth Distance (km) Brightness Sun altitude
Rises 04:36:44 0° 357° (N) 3,480 9.9 -11.5°
Reaches altitude 10° 04:41:34 10° 32° (NNE) 2,616 9.9 -10.7°
Maximum altitude 04:43:12 11° 48° (NE) 2,560 10.2 -10.4°
Drops below altitude 10° 04:44:51 10° 63° (ENE) 2,652 10.4 -10.1°
Sets 04:49:52 0° 97° (E) 3,627 10.3 -9.2°
